Weather in Tsimmermanovka

Russia / Khabarovsk Krai     51°20′23″N   139°14′42″E
temp.,
°C
wind,
m/s
gust,
m/s
humid.,
%
clouds,
%
prec.,
mm/h
press.,
hPa
HPBL,
m
27 february, sat
sat2701:00−19sw229488 0.0 102933
04:00−21sw229244 0.0 103066
07:00−21sw22890 0.0 103050
10:00−15w35850 0.0 1029291
13:00−10wnw358654 0.0 1028504
16:00−9wnw358276 0.0 1025389
19:00−14sse1192100 0.0 102421
22:00−13sse228494 0.0 102141
28 february, sun
sun2801:00−12se1187100 0.1 101767
04:00−12sse0093100 0.3 101223
07:00−14ssw1192100 0.1 101121
10:00−8w388467 0.1 1011544
13:00−6w710798 0.0 10111012
16:00−6w6108036 0.1 10111451
19:00−9wnw3996100 1.0 1014711
22:00−15w259499 1.6 1017132
1 march, mon
mon101:00−16wnw2397100 0.5 101871
04:00−18wsw2294100 0.6 102153
07:00−19wsw2795100 0.1 1022179
10:00−18wsw5978100 0.1 1023722
13:00−17wsw71079100 0.0 10231033
16:00−17wsw6981100 0.1 10231284
19:00−19sw41088100 0.1 1024552
22:00−21wsw6137483 0.1 1025641
2 march, tue
tue201:00−23sw412769 0.0 1026412
04:00−24sw512764 0.0 1027401
07:00−25sw413760 0.0 1029526
10:00−21wsw6107924 0.0 10281041
13:00−19w6117614 0.0 10281248
16:00−18wsw6107956 0.1 10271340
19:00−22sw3593100 0.0 1028104
22:00−23sw358579 0.0 103093
3 march, wed
wed301:00−24sw36840 0.0 1028121
04:00−25wsw36830 0.0 1028128
07:00−26sw22860 0.0 102744
10:00−19w37840 0.0 1026352
13:00−14w47760 0.0 1022662
16:00−12w47730 0.0 1019930
19:00−17s338329 0.0 101844
22:00−18s238057 0.0 101636